Location: Launois
(49.6535°N, 4.5395°E)
Time: 11:43:30
(UTC+00:00)

Cosmos 1733 Rocket - Pass Details

Date: 23 May 2024
Orbit: 600 x 624 km, 82.5° (Epoch: 14 June)

Event Time Altitude Azimuth Distance (km) Brightness Sun altitude
Rises 00:24:07 0° 348° (NNW) 2,866 7.7 -19.0°
Reaches altitude 10° 00:26:20 10° 347° (NNW) 1,960 6.6 -18.9°
Maximum altitude 00:30:39 75° 262° (W) 632 3.0 -18.8°
Enters shadow 00:31:59 43° 188° (S) 853 3.3 -18.7°
